Flag for Switzerland Weather past 2 weeks in Versoix, Geneva, Switzerland

Now
47 °F

Cool.


Feels Like: 47 °F
Forecast: 44 / 66 °F
Wind: 2 mph from Northwest

Location: Geneve-Cointrin

Current Time: Sep 24, 2014 at 5:14:19 AM

Latest Report: Sep 24, 2014 at 4:00 AM


Visibility: N/A

Pressure: 30.05 "Hg

Humidity: 88%

Dew point: 44 °F

Location of VersoixLocation

Historic Weather in Versoix — Graph

°F

Versoix temperature yesterday

Maximum temperature yesterday: 63 °F (at 6:00 PM)
Minimum temperature yesterday: 51 °F (at 7:00 AM)
Average temperature yesterday: 55 °F

Past Weeks' High & Low Weather Summary

 TemperatureHumidityPressure
High77 °F (Sep 15, 5:00 PM)95% (Sep 20, 5:00 AM)30.11 "Hg (Sep 20, 5:00 AM)
Low47 °F (Sep 24, 4:00 AM)44% (Sep 12, 5:00 PM)29.81 "Hg (Sep 17, 5:00 PM)
Average63 °F76%29.99 "Hg
* Reported Sep 9 4:00 AM — Sep 24 4:00 AM, Versoix, Weather by CustomWeather, © 2014

Note: Actual official high and low records may vary slightly from our data, if they occured in-between our weather recording intervals... More about our weather records

Advertising

Versoix weather history for previous 24 hours

 ConditionsComfort  
Time TempWeatherWind HumidityBarometerVisibility
4:00 AM
Sep 24
47 °FCool.2 mph88%30.05 "HgN/A
3:00 AM47 °FCool.1 mph89%30.06 "HgN/A
2:00 AM48 °FClear.No wind88%30.07 "Hg9 mi
1:00 AM48 °FCool.1 mph87%30.07 "HgN/A
12:00 AM50 °FCool.1 mph85%30.07 "HgN/A
11:00 PM
Sep 23
51 °FClear.1 mph83%30.06 "Hg9 mi
10:00 PM52 °FCool.3 mph80%30.06 "HgN/A
9:00 PM54 °FCool.1 mph79%30.05 "HgN/A
8:00 PM56 °FPassing clouds.3 mph70%30.03 "Hg12 mi
7:00 PM59 °FCool.2 mph62%30.01 "HgN/A
6:00 PM63 °FMild.5 mph50%29.98 "HgN/A
5:00 PM62 °FPassing clouds.7 mph47%29.99 "Hg14 mi
4:00 PM62 °FRefreshingly cool.8 mph52%30.00 "HgN/A
3:00 PM61 °FRefreshingly cool.12 mph57%30.02 "HgN/A
2:00 PM59 °FScattered clouds.9 mph58%30.03 "Hg12 mi
1:00 PM57 °FCool.9 mph62%30.06 "HgN/A
12:00 PM55 °FCool.10 mph63%30.08 "HgN/A
11:00 AM55 °FScattered clouds.14 mph63%30.09 "Hg14 mi
10:00 AM53 °FCool.15 mph66%30.11 "HgN/A
9:00 AM52 °FCool.20 mph67%30.10 "HgN/A
8:00 AM52 °FScattered clouds.15 mph64%30.09 "Hg12 mi
7:00 AM51 °FCool.17 mph67%30.08 "HgN/A
6:00 AM52 °FCool.15 mph70%30.07 "HgN/A
5:00 AM52 °FPassing clouds.15 mph67%30.07 "Hg16 mi
Weather by CustomWeather, © 2014

See weather overviewHow to use our weather pages